Regional Weather Roundup
Issued by NWS

Home | Current Version | Previous Version | Graphics & Text | Print | Product List | Glossary On
Versions: 1 2 3 4 5 6 7 8 9 10 11 12 13 14 15 16 17 18 19 20 21 22 23 24 25 26 27 28 29 30 31 32 33 34 35 36 37 38 39 40 41 42 43 44 45 46 47 48 49 50
000
ASUS43 KLSX 281710
RWRMO

WEATHER SUMMARY FOR MISSOURI
NATIONAL WEATHER SERVICE SPRINGFIELD MO
1200 PM CDT TUE MAR 28 2017

NOTE: "FAIR" INDICATES FEW OR NO CLOUDS BELOW 12,000 FEET WITH NO
       SIGNIFICANT WEATHER AND/OR OBSTRUCTIONS TO VISIBILITY.
       CURRENT SKY AND/OR WEATHER CONDITIONS ARE NOT AVAILABLE FOR
       CHILLICOTHE AND FARMINGTON.

MOZ001>031-035>038-043-044-053-054-281800-
...NORTHERN AND WESTERN MISSOURI...

CITY           SKY/WX    TMP DP  RH WIND       PRES   REMARKS
KANSAS CTY INT DRIZZLE   50  49  96 E6        30.09F FOG
KANSAS C DTWN  CLOUDY    52  49  89 NE7       30.09F FOG
LEE`S SUMMIT   CLOUDY    51  49  92 NE8       30.09F
ST JOSEPH      CLOUDY    51  47  86 NE7       30.11S
CHILLICOTHE      N/A     50  48  93 NE7       30.13R
KIRKSVILLE     CLOUDY    51  49  92 E7        30.12R FOG

$$
MOZ066>068-077>081-088>096-101>105-281800-
...SOUTHWEST MISSOURI...

CITY           SKY/WX    TMP DP  RH WIND       PRES   REMARKS
SPRINGFIELD    CLOUDY    57  49  74 SE8       30.05S
JOPLIN         CLOUDY    54  49  83 SE7       30.05S
BRANSON        CLOUDY    59  50  72 SE9       30.06S

$$
MOZ032>034-039>042-045>050-055>058-069>072-281800-
...CENTRAL MISSOURI...

CITY           SKY/WX    TMP DP  RH WIND       PRES   REMARKS
COLUMBIA       CLOUDY    54  50  86 SE6       30.10R
JEFFERSON CITY CLOUDY    55  49  80 SE8       30.10R
ROLLA          CLOUDY    54  49  83 E5        30.08R
SEDALIA        CLOUDY    54  50  86 E7        30.10S
WHITEMAN AFB   CLOUDY    54  54 100 E8        30.07F FOG
WARRENSBURG    CLOUDY    50  50 100 NE6       30.09F FOG
OSAGE BEACH    CLOUDY    55  52  88 NE6       30.09S

$$
MOZ051-052-059>065-281800-
...EAST CENTRAL MISSOURI...

CITY           SKY/WX    TMP DP  RH WIND       PRES   REMARKS
ST LOUIS INTL  CLOUDY    56  49  77 E8        30.10R
SPIRIT OF STL  CLOUDY    55  50  83 NE5       30.09R
ST CHARLES     CLOUDY    56  49  77 CALM      30.09R

$$
MOZ072>076-082>087-097>100-106>115-281800-
...SOUTH CENTRAL AND SOUTHEAST MISSOURI...

CITY           SKY/WX    TMP DP  RH WIND       PRES   REMARKS
CAPE GIRARDEAU CLOUDY    57  50  77 N5        30.08S
FARMINGTON     CLOUDY    53  49  86 CALM      30.10S
POPLAR BLUFF   CLOUDY    61  53  75 NE8       30.07F
WEST PLAINS    CLOUDY    58  51  78 E8        30.07S

$$



USA.gov is the U.S. government's official web portal to all federal, state and local government web resources and services.